Location: La Silve
(44.2414°N, 5.8889°E)
Time: 09:29:59
(UTC+00:00)

ARGOS - Pass Details

Date: 01 December 2020
Orbit: 820 x 835 km, 98.4° (Epoch: 25 January)

Event Time Altitude Azimuth Distance (km) Brightness Sun altitude
Exits shadow 18:08:30 25° 19° (NNE) 1,624 4.4 -22.6°
Drops below altitude 10° 18:11:00 10° 1° (N) 2,442 5.5 -23.0°
Sets 18:13:29 0° 354° (N) 3,378 6.3 -23.5°
